Location: La Coruña
(43.3623°N, 8.4115°W)
Time: 02:23:09
(UTC+01:00)

STARLINK-1103 - Pass Details

Date: 21 January 2020
Orbit: 548 x 551 km, 53.0° (Epoch: 23 February)

Event Time Altitude Azimuth Distance (km) Brightness Sun altitude
Rises 20:12:41 0° 288° (WNW) 2,723 8.3 -18.4°
Reaches altitude 10° 20:15:20 10° 304° (WNW) 1,831 6.9 -18.9°
Maximum altitude 20:18:36 22° 355° (N) 1,248 5.4 -19.5°
Enters shadow 20:19:22 21° 12° (NNE) 1,288 5.3 -19.6°
